Regional Weather Roundup
Issued by NWS

Home | Current Version | Previous Version | Graphics & Text | Print | Product List | Glossary On
Versions: 1 2 3 4 5 6 7 8 9 10 11 12 13 14 15 16 17 18 19 20 21 22 23 24 25 26 27 28 29 30 31 32 33 34 35 36 37 38 39 40 41 42 43 44 45 46 47 48 49 50
000
ASUS45 KTFX 200419
RWRMT
MONTANA HOURLY WEATHER ROUNDUP
NATIONAL WEATHER SERVICE GREAT FALLS MT
1019 PM MDT SAT APR 19 2014

NOTE: "FAIR" INDICATES FEW OR NO CLOUDS BELOW 12000 FEET WITH NO
SIGNIFICANT WEATHER AND/OR OBSTRUCTIONS TO VISIBILITY.

* THESE STATIONS ARE NOT UNDER NWS QUALITY CONTROL. THEY DO NOT
   REPORT WEATHER SUCH AS PRECIPITATION OR FOG.

MTZ001>007-043-200500-
WEST OF THE DIVIDE
CITY           SKY/WX    TMP DP  RH WIND       PRES   REMARKS
KALISPELL      CLOUDY    55  25  31 W20G25    29.84R
MISSOULA       MOCLDY    55  25  31 NW10      29.87R
BUTTE          MOCLDY    43  25  49 SE7       29.90R
MULLAN PASS    LGT SNOW  30  28  92 S12G21    29.95S VSB 3    WCI  20
* ESSEX        N/A       38  30  73 N1         N/A
* LINCOLN      N/A       45  23  42 W1         N/A
* LOOKOUT PASS N/A       37  33  85 SE9G17     N/A   WCI  30
* POLSON       N/A       53  22  30 W6         N/A
* RONAN APT    PTCLDY    55  25  31 W8         N/A
* SEELEY LAKE  N/A       47  27  46 E1G6       N/A
* THOMP F APT  CLOUDY    45  12  26 N3G16      N/A
* YAAK HILL    N/A       51  26  38 NE1G14     N/A
$$

MTZ008-052>055-200500-
SOUTHWEST MONTANA
CITY           SKY/WX    TMP DP  RH WIND       PRES   REMARKS
BOZEMAN        PTCLDY    48  25  41 SE12      29.86S
DILLON         PTCLDY    52  14  22 S12       29.89R
W YELLOWSTONE  N/A       35  24  64 N/A        N/A
* THREE FORKS  PTCLDY    57  21  25 SW15G21    N/A
* BOULDER HILL N/A       47  15  28 SW2        N/A
* MONIDA PASS  N/A       49  12  22 S16        N/A
* RAYNOLDS PAS N/A       42  25  51 S14        N/A
* WHITEHALL    N/A       55  16  21 NE4G10     N/A
* WISE RIVER   N/A       46  19  34 SW3G10     N/A
$$

MTZ009>010-012-014-046-048-049-054-200500-
EAST SLOPES AND CENTRAL MONTANA
CITY           SKY/WX    TMP DP  RH WIND       PRES   REMARKS
CUT BANK       CLEAR     45  21  38 W7        29.80S
GREAT FALLS    PTCLDY    46  21  37 E3        29.81R
HELENA         MOCLDY    52  21  30 W8        29.81R
MALMSTROM AFB  PTCLDY    45  23  42 SE9       29.79S
* CONRAD       CLEAR     41  19  41 N/A        N/A
* DEARBORN     N/A       47  23  39 N/A        N/A
* EAST GLACIER N/A       46  19  34 VRB4       N/A
* MONARCH      N/A       43  13  29 S4         N/A
* PENDROY      N/A       45  12  26 SW2        N/A
* ROGERS PASS  N/A       41  19  41 NW4        N/A
* SAINT MARY   N/A       46  21  37 SE3G11     N/A
* SWEET GRASS  N/A       49  18  29 W13        N/A
* WHITE SULPH  N/A       47  17  30 SE6G12     N/A
$$

MTZ011-013-016-021-035-040-045-047-050-051-200500-
NORTH CENTRAL MONTANA
CITY           SKY/WX    TMP DP  RH WIND       PRES   REMARKS
HAVRE          MOCLDY    48  21  34 E7        29.80S
LEWISTOWN      CLEAR     43  21  42 E7        29.85S
* CHINOOK      PTCLDY    46  19  34 CALM      29.82S
* FORT BENTON  PTCLDY    48  19  32 CALM      29.80S
* MALTA APT    CLEAR     43  18  37 CALM      29.82R
* CHESTER      N/A       48  22  36 NW2        N/A
* DENTON       N/A       46  14  27 SE10       N/A
* GEYSER       N/A       41  23  49 SW6        N/A
* JUDITH GAP   N/A       41  16  36 S4         N/A
* LOMA         N/A       53  16  23 NE6        N/A
$$

MTZ017>020-022>027-061-062-200500-
NORTHEAST MONTANA
CITY           SKY/WX    TMP DP  RH WIND       PRES   REMARKS
GLASGOW        CLEAR     41  28  60 E12       29.86R
GLENDIVE       CLEAR     46  21  37 S6        29.93S
JORDAN         PTCLDY    46  25  44 CALM      29.86S
SIDNEY         CLEAR     37  30  76 CALM      29.93S
WOLF POINT     PTCLDY    39  27  62 NE6       29.88S WCI  35
* BEAVER HILL  N/A       47  21  36 SE9        N/A
* CIRCLE       N/A       49  25  39 N/A        N/A
* LINDSAY DVD  N/A       42  20  41 N/A        N/A
* NAVAJO       N/A       44  28  53 SW6        N/A
* SACO         N/A       42  27  55 SE3        N/A
$$

MTZ028>042-056>058-200500-
SOUTHCENTRAL AND SOUTHEAST MONTANA
CITY           SKY/WX    TMP DP  RH WIND       PRES   REMARKS
BAKER          CLEAR     37  25  62 SE5       29.96R WCI  33
BILLINGS       FAIR      55  27  34 SE7       29.87S
LIVINGSTON     CLEAR     55  19  24 SW14      29.86S
MILES CITY     CLEAR     48  25  41 S10       29.90S
* LAUREL APT   CLEAR     54  25  33 N/A        N/A
* ROUNDUP APT  CLEAR     55  21  27 N/A        N/A
* HYSHAM       N/A       56  18  22 SE4G9      N/A
* LAME DEER    N/A       52  20  28 SE5        N/A
* REED POINT   N/A       47  26  44 N/A        N/A
* ROSCOE HILL  N/A       55   6  14 S8G14      N/A
$$

REGIONAL REPORTS...DAKOTAS
CITY           SKY/WX    TMP DP  RH WIND       PRES   REMARKS
WILLISTON      CLEAR     37  30  76 CALM      29.92R
DICKINSON      CLEAR     37  25  62 S7        29.94S WCI  32
CROSBY         CLEAR     32  32 100 SE5       29.93S WCI  27
TIOGA          CLEAR     32  32 100 E7        29.96R WCI  25
WATFORD CITY   CLEAR     36  30  79 CALM      29.92S
BISMARCK       CLEAR     45 N/A N/A NE7       29.99R
GRAND FORKS    CLEAR     39  34  82 W5        30.00R WCI  35
FARGO          CLEAR     46  36  68 N10       30.00R
BUFFALO SD     CLEAR     48  27  44 SE8       29.91S
RAPID CITY     PTCLDY    45  30  56 CALM      30.00S
$$

REGIONAL REPORTS...WYOMING/IDAHO/WASHINGTON
CITY           SKY/WX    TMP DP  RH WIND       PRES   REMARKS
GILLETTE       PTCLDY    48  32  54 SE12      29.96F
SHERIDAN       CLEAR     41  34  76 SW3       29.93S
CODY           MOCLDY    48  21  34 S8        29.94S
YELLOWSTONE LA PTCLDY    28  21  75 CALM      30.10R
SALMON         MOCLDY    52  21  30 SE3       29.86R
MULLAN PASS    LGT SNOW  30  28  92 S12G21    29.95S VSB 3    WCI  20
SAND POINT     CLOUDY    50  34  54 S5        29.90R
SPOKANE        MOCLDY    52  34  50 SW22      29.93R
$$

REGIONAL REPORTS...ALBERTA
CITY           SKY/WX    TMP DP  RH WIND       PRES   REMARKS
CALGARY        FAIR      41  27  58 NW6       29.70R
LETHBRIDGE     MOCLDY    41  23  49 SW8       29.76S
MEDICINE HAT   MOCLDY    48  28  46 SW6       29.76S
EDMONTON       LGT RAIN  45  32  60 SW7       29.72R
WATERTON GATE  N/A       48  21  34 SW9G17     N/A
CARDSTON       N/A       45  25  45 SW7        N/A
MILK RIVER     N/A       37  21  52 S3         N/A
$$

REGIONAL REPORTS...SASKATCHEWAN
CITY           SKY/WX    TMP DP  RH WIND       PRES   REMARKS
SWIFT CURRENT  CLEAR     34  32  92 E10       29.84R WCI  26
REGINA         FAIR      34  32  92 CALM      29.93R
VAL MARIE      N/A       32  21  64 S2         N/A
ASSINIBOIA     N/A       34  30  85 E8         N/A   WCI  27
CORONACH       N/A       41  36  82 E7         N/A

$$




USA.gov is the U.S. government's official web portal to all federal, state and local government web resources and services.